Location: Banska Bystrica
(48.7333°N, 19.1500°E)
Time: 11:32:45
(UTC+01:00)

ISS - Pass Details

Date: 02 February 2021
Orbit: 417 x 422 km, 51.6° (Epoch: 07 March)

Event Time Altitude Azimuth Distance (km) Brightness Sun altitude
Rises 18:06:14 0° 291° (WNW) 2,376 1.2 -13.9°
Reaches altitude 10° 18:08:21 10° 288° (WNW) 1,509 0.1 -14.2°
Maximum altitude 18:11:43 67° 206° (SSW) 462 -3.5 -14.8°
Enters shadow 18:13:41 23° 128° (SE) 958 -2.3 -15.1°
